Content
SEND FEEDBACK

Daily
Averages
Monthly
Summary
United Kingdom

BELFAST, NORTHERN IRELAND


Home > Europe > United Kingdom > Northern Ireland
Elevation: 16 feet     Latitude: 54 36N     Longitude: 005 53W

WEATHER
 
SELECT A DAY
Number of Records: 190,722;   Date Range: 7/1/96 - 7/29/14
 
SHARE

PRINT THIS DATA

[ ← Previous Day ]
WEATHER ALMANAC - JANUARY 3, 2013
[ Next Day → ]
[ °C ]   °F
Weather ElementAverageHighLow
Temperature52.2 °F53.6 °F (1:20 pm)51.8 °F (6:50 am)
Dewpoint49.8 °F51.8 °F (12:50 pm)48.2 °F (9:50 am)
Humidity91.9 %100 % (12:50 pm)88 % (9:50 am)
Barometer30.37 in30.45 in (8:20 pm)30.30 in (6:50 am)
Wind Speed11.6 mph18.4 mph (3:50 pm)
Weather ElementAverage
Visibility5.8 mi
Wind DirectionSSW (207.2 °)

Weather ElementTotal
Precipitation---
Heating Degree Days12.3 (Base 65)
Growing Degree Days2.7 (Base 50)
Averaged from 29 records on January 3, 2013
WEATHER CONDITIONS BREAKOUT
WIND DIRECTION BREAKOUT
WEATHER BY HOUR - JANUARY 3, 2013
[ °C ]   °F
Local TimeTemperatureDewpointHumidityBarometerVisibilityWind DirectionWind SpeedGust SpeedPrecipitationEventsConditions
6:50 AM51.8 °F50.0 °F94 %30.30 in6.2 miSSW (210°)12.7 mphMostly Cloudy
7:20 AM51.8 °F50.0 °F94 %30.30 in6.2 miSSW (210°)9.2 mphMostly Cloudy
7:50 AM51.8 °F50.0 °F94 %30.33 in6.2 miSSW (200°)11.5 mphMostly Cloudy
8:20 AM51.8 °F50.0 °F94 %30.33 in6.2 miSouth (190°)11.5 mphMostly Cloudy
8:50 AM51.8 °F50.0 °F94 %30.33 in6.2 miSouth (190°)10.4 mphMostly Cloudy
9:20 AM51.8 °F50.0 °F94 %30.33 in6.2 miSouth (190°)11.5 mphMostly Cloudy
9:50 AM51.8 °F48.2 °F88 %30.33 in6.2 miSSW (200°)11.5 mphMostly Cloudy
10:20 AM51.8 °F48.2 °F88 %30.36 in6.2 miSSW (200°)10.4 mphMostly Cloudy
10:50 AM51.8 °F50.0 °F94 %30.36 in5.6 miSSW (200°)6.9 mphRainLight Rain Showers
11:20 AM51.8 °F50.0 °F94 %30.36 in3.1 miSouth (180°)5.8 mphRainLight Rain
11:50 AM51.8 °F50.0 °F94 %30.36 in4.3 miSouth (190°)3.5 mphMostly Cloudy
12:20 PM51.8 °F50.0 °F94 %30.33 in4.3 miSSE (160°)5.8 mphRainLight Rain
12:50 PM51.8 °F51.8 °F100 %30.36 in4.3 miSSW (210°)9.2 mphRainLight Rain
1:20 PM53.6 °F51.8 °F94 %30.36 in4.3 miSW (220°)11.5 mphRainLight Rain
1:50 PM53.6 °F51.8 °F94 %30.33 in5.6 miSSW (210°)12.7 mphRainLight Rain
2:20 PM53.6 °F51.8 °F94 %30.33 in6.2 miSSW (200°)10.4 mphMostly Cloudy
2:50 PM53.6 °F51.8 °F94 %30.36 in6.2 miSSW (210°)11.5 mphMostly Cloudy
3:20 PM53.6 °F51.8 °F94 %30.36 in6.2 miSSW (200°)13.8 mphMostly Cloudy
3:50 PM53.6 °F50.0 °F88 %30.36 in6.2 miSW (220°)18.4 mphMostly Cloudy
4:20 PM53.6 °F50.0 °F88 %30.39 in6.2 miSW (230°)15.0 mphMostly Cloudy
4:50 PM51.8 °F50.0 °F94 %30.39 in6.2 miSW (230°)15.0 mphMostly Cloudy
5:20 PM51.8 °F50.0 °F94 %30.39 in6.2 miSW (230°)13.8 mphMostly Cloudy
5:50 PM51.8 °F48.2 °F88 %30.39 in6.2 miSW (220°)12.7 mphMostly Cloudy
6:20 PM51.8 °F48.2 °F88 %30.42 in6.2 miSW (220°)10.4 mphMostly Cloudy
6:50 PM51.8 °F48.2 °F88 %30.42 in6.2 miSSW (210°)16.1 mphMostly Cloudy
7:20 PM51.8 °F48.2 °F88 %30.42 in6.2 miSSW (210°)17.3 mphMostly Cloudy
7:50 PM51.8 °F48.2 °F88 %30.42 in6.2 miSW (230°)13.8 mphMostly Cloudy
8:20 PM51.8 °F48.2 °F88 %30.45 in6.2 miSW (220°)12.7 mphMostly Cloudy
8:50 PM51.8 °F48.2 °F88 %30.45 in6.2 miSW (220°)10.4 mphMostly Cloudy
Hourly data recorded from EGAC, located miles away from Belfast, Northern Ireland







STORIES FROM OUR PARTNERS